Probability
0 0 0 0 0 0 0 0 0 0 0 0 0 0 0 0 0 0 0 0 0 0 1 1 2 1 0 0 0 0 0 0 0 0 0 0 0 0 1 1 1 0 1 3 3 3 2 2 1
0 0 0 0 0 0 0 0 0 0 0 0 0 0 0 0 0 0 0 0 0 1 1 2 2 1 1 0 0 0 0 0 0 0 0 0 0 0 0 0 0 0 1 2 3 3 2 1 0
0 0 0 0 0 0 0 0 0 0 0 0 0 0 0 0 0 0 0 0 0 1 2 2 2 2 1 0 0 0 0 0 0 0 0 0 0 0 0 0 0 0 1 1 1 2 1 0 0
0 0 0 0 0 0 0 0 0 0 0 0 0 0 0 0 0 0 0 0 0 0 1 1 2 1 1 0 0 0 0 0 0 0 0 0 0 0 0 0 0 0 0 0 0 1 1 0 0
0 0 0 0 0 0 0 0 0 0 0 0 0 0 0 0 0 0 0 0 0 0 0 1 1 1 0 0 0 0 0 0 0 0 0 0 0 0 0 0 0 0 0 0 0 0 0 0 0
0 0 0 0 0 0 0 0 0 0 0 0 0 0 0 0 0 0 0 0 0 0 0 0 0 0 0 0 0 0 0 0 0 0 0 0 0 0 0 0 0 0 0 0 0 0 0 0 0
0 0 0 0 0 0 0 0 0 0 0 0 0 0 0 0 0 0 0 0 0 0 0 0 0 0 0 0 0 0 0 0 0 0 0 0 0 0 0 0 0 0 0 0 0 0 0 0 0
0 0 0 0 0 0 0 0 0 0 0 0 0 0 0 0 0 0 0 0 0 0 0 0 0 0 0 0 0 0 0 0 0 0 0 0 0 0 0 0 0 0 0 0 0 0 0 0 0
0 0 0 0 0 0 0 0 0 0 0 0 0 0 0 0 0 0 0 0 0 0 0 0 0 0 0 0 0 0 0 0 0 0 0 0 0 0 0 0 0 0 0 0 0 0 0 0 0
0 0 0 0 0 0 0 0 0 0 0 0 0 0 0 0 0 0 0 0 0 0 0 0 0 0 0 0 0 0 0 0 0 0 0 0 0 0 0 0 0 0 0 0 0 0 0 0 0
0 0 0 0 0 0 0 0 0 0 0 0 0 0 0 0 0 0 0 0 0 0 0 0 0 0 0 0 0 0 0 0 0 0 0 0 0 0 0 0 0 0 0 0 0 0 0 0 0
0 0 0 0 0 0 0 0 0 0 0 0 0 0 0 0 0 0 0 0 0 0 0 0 0 0 0 1 1 0 0 0 0 0 0 0 0 0 0 0 0 0 0 0 0 0 0 0 0
0 0 0 0 0 0 0 0 0 0 0 0 0 1 1 0 0 0 0 0 0 0 0 0 0 0 1 2 1 0 0 0 0 0 0 0 0 0 0 0 0 0 0 0 0 0 0 0 0
0 0 0 0 0 0 0 0 0 0 0 0 0 1 2 1 0 1 1 0 0 0 0 0 0 0 1 2 1 0 0 0 0 0 0 0 0 0 0 0 0 0 0 0 0 0 0 0 0
0 0 0 0 0 0 0 0 0 0 0 0 0 1 1 1 0 1 1 1 1 0 0 0 0 0 1 1 0 0 0 0 0 0 0 0 0 0 0 0 0 0 0 0 0 0 0 0 0
0 0 0 0 0 0 0 0 0 0 0 0 0 0 0 0 0 1 1 0 0 0 0 0 0 0 0 0 0 0 0 0 0 0 0 0 0 0 0 0 0 0 0 0 0 0 0 0 0
0 0 0 0 0 0 0 0 0 0 0 0 0 0 0 0 0 0 0 0 0 1 2 2 0 0 0 0 0 0 0 0 0 0 0 0 0 0 0 0 0 0 0 0 0 0 0 0 0
0 0 0 0 0 0 0 0 0 0 0 0 0 0 0 0 0 0 1 1 1 3 4 3 1 0 1 1 1 1 0 0 0 0 0 0 0 0 0 0 0 0 0 0 0 0 0 0 0
0 0 0 0 0 0 0 0 0 0 0 0 0 0 0 0 1 2 1 1 1 3 4 4 1 1 2 2 1 1 0 0 0 0 0 0 0 0 0 0 0 0 0 0 0 0 0 0 0
0 0 0 0 0 0 0 0 0 0 0 0 0 0 0 1 2 2 2 2 2 3 3 3 2 2 2 2 1 1 1 0 0 0 0 0 0 0 0 0 0 0 0 0 0 0 0 0 0
0 0 0 0 0 0 0 0 0 0 0 0 0 0 0 1 1 2 3 3 3 4 4 4 4 4 2 1 0 1 1 0 0 0 1 0 0 0 0 0 0 0 0 0 0 0 0 0 0
0 0 0 0 0 0 0 0 0 0 0 0 0 0 0 0 0 1 2 3 3 4 5 6 6 5 3 1 2 2 1 0 0 0 0 0 0 0 0 0 0 0 0 0 0 0 0 0 0
0 0 0 0 0 0 0 0 0 0 0 0 0 0 1 0 0 0 1 2 3 4 6 6 6 5 4 3 4 4 2 1 0 1 1 1 1 0 0 0 0 0 0 0 0 0 0 0 0
0 0 0 0 0 0 0 0 0 0 0 0 0 0 0 0 0 0 0 1 1 3 6 7 7 6 4 4 5 5 4 2 2 3 3 3 2 1 0 0 0 0 0 0 0 0 1 1 0
0 0 0 0 0 0 0 0 0 0 0 0 0 0 0 0 0 0 0 0 1 4 7 8 9 8 6 4 4 5 5 4 4 5 5 4 3 2 0 0 0 0 0 0 0 0 1 1 1
0 0 0 0 0 0 0 0 0 0 0 0 0 0 0 0 0 0 0 0 1 4 8 9 10 9 7 5 4 4 5 6 6 6 6 4 3 1 0 0 0 0 0 0 0 0 0 0 0
0 0 0 0 0 0 0 0 0 0 0 0 0 0 0 0 0 0 0 0 1 3 6 9 10 9 8 7 5 4 5 6 6 6 5 4 3 1 0 0 0 0 0 0 0 0 0 1 1
0 0 0 0 0 0 0 0 0 0 0 0 0 0 0 0 0 0 0 0 0 2 5 8 10 10 10 9 6 4 5 5 5 4 4 3 3 2 1 0 0 0 0 0 0 0 1 2 2
0 0 0 0 0 0 0 0 0 0 0 0 0 0 0 0 0 0 0 0 1 2 5 8 9 10 10 9 6 4 4 4 4 3 3 3 3 2 1 0 0 0 0 0 0 1 2 3 3
0 0 0 0 0 0 0 0 0 0 0 0 0 0 0 0 0 0 0 0 1 3 5 7 9 10 10 9 6 4 3 3 3 3 3 3 3 2 1 0 0 0 0 0 1 2 3 3 3
Wind_Speed
4 2 2 3 2 3 6 5 4 4 4 5 5 4 6 7 6 6 5 4 3 4 5 6 6 7 8 8 9 9 9 9 9 10 10 11 11 11 11 11 12 12 12 11 11 11 10 10 10
1 1 3 2 1 4 7 5 6 6 6 5 4 4 5 7 6 6 5 4 4 5 5 7 7 7 8 9 9 9 9 9 10 10 10 10 11 11 11 11 11 11 11 11 11 10 10 10 10
1 2 2 0 2 4 7 5 6 7 5 2 3 4 5 5 5 5 5 5 5 5 6 8 6 7 8 9 9 9 9 9 10 10 10 10 10 11 11 11 11 11 11 10 10 10 10 9 9
2 2 1 2 7 6 5 6 5 6 4 3 3 5 5 5 4 6 7 6 6 6 6 8 6 7 8 8 9 9 9 9 9 10 10 10 11 11 11 11 10 10 10 10 10 10 9 9 9
1 1 3 5 7 6 4 4 3 3 4 4 3 5 6 5 6 7 7 6 6 6 6 8 7 7 7 8 8 8 9 9 10 10 10 10 10 10 10 11 11 10 10 10 10 10 10 10 10
1 1 2 5 7 5 5 4 4 4 5 4 4 5 6 6 7 7 7 6 6 6 6 8 8 7 7 8 8 8 9 9 9 9 10 10 10 10 10 10 11 11 10 10 10 10 10 10 9
0 1 3 5 6 5 4 3 2 3 4 3 2 4 7 7 6 7 6 6 6 5 5 5 7 7 7 8 8 8 8 9 9 9 9 9 9 9 10 10 10 10 10 10 10 10 10 9 9
0 2 5 4 5 5 5 3 2 1 4 4 1 3 5 8 8 7 7 6 6 5 5 5 5 5 6 7 8 7 8 8 8 9 9 7 7 8 8 8 10 10 10 9 9 9 9 8 8
2 2 4 4 3 4 4 4 3 2 5 4 2 4 6 11 9 8 7 6 5 5 4 4 4 4 4 5 6 6 6 6 5 6 6 3 4 6 6 10 9 9 9 9 9 9 7 5 7
2 2 3 2 2 3 4 3 4 5 5 4 5 6 9 10 9 8 7 6 6 5 4 3 4 4 4 4 3 3 4 4 3 4 4 3 4 5 5 8 8 8 7 7 8 5 2 1 3
1 2 3 3 3 3 3 3 2 3 3 3 4 8 10 10 9 7 6 5 5 4 4 3 3 3 3 3 2 2 2 2 3 4 4 3 3 3 3 2 3 4 4 4 4 2 3 3 3
3 3 2 3 3 2 2 3 3 1 1 2 3 8 11 10 8 7 6 5 5 4 3 3 2 2 2 3 2 2 2 2 2 2 3 3 2 2 3 2 3 3 2 3 3 2 3 4 4
4 3 3 3 3 2 2 2 2 1 1 2 6 9 10 9 8 6 5 5 4 4 3 3 2 2 2 2 1 2 2 2 2 2 2 3 2 3 3 2 2 3 2 2 2 3 4 4 4
4 4 3 3 3 3 2 2 2 2 3 5 7 8 8 8 7 7 6 5 5 4 4 4 3 2 2 2 2 2 2 2 2 2 3 3 2 2 2 3 3 3 2 2 2 3 3 3 3
4 4 4 2 2 2 3 3 3 3 5 6 7 7 7 7 7 6 6 5 5 5 4 4 3 2 2 2 2 1 1 2 1 2 2 2 2 3 3 2 3 2 2 2 2 3 2 2 2
5 5 4 2 2 3 5 3 3 4 6 6 6 6 7 7 7 6 5 5 4 4 4 5 3 3 3 2 2 1 1 1 1 1 1 1 2 2 2 2 2 2 2 2 2 2 2 2 2
6 4 3 3 2 2 4 3 2 3 5 6 6 6 6 6 7 6 6 5 4 4 4 5 4 3 3 2 2 1 1 1 1 1 0 1 1 2 2 2 2 2 2 2 1 2 2 2 2
4 4 3 2 2 3 4 3 1 2 5 6 5 5 6 6 6 6 6 5 4 4 4 4 4 4 3 2 2 2 1 1 1 0 0 0 0 1 1 1 1 1 1 1 1 2 1 1 1
3 3 3 1 0 2 3 3 2 2 3 4 5 5 5 5 4 4 5 5 5 5 5 4 4 4 3 2 2 2 2 1 1 1 0 0 1 1 1 0 0 0 0 1 1 1 1 1 1
6 5 3 1 1 2 2 3 3 1 2 3 3 4 4 3 3 4 5 6 6 6 6 5 5 4 4 2 2 2 1 1 1 0 1 1 1 1 1 1 1 1 0 0 0 0 1 0 1
6 5 3 2 1 4 3 3 3 2 2 1 2 2 2 3 4 5 5 5 6 7 6 5 5 5 4 4 2 2 2 1 1 1 1 1 1 2 2 2 1 1 1 1 1 1 1 1 1
4 2 3 4 5 2 4 3 2 2 2 1 1 1 2 2 3 4 5 5 6 6 6 6 6 6 5 4 4 4 3 2 2 1 1 1 1 2 2 2 2 2 2 2 2 1 2 2 1
1 2 3 4 5 4 4 5 2 3 2 1 0 0 1 1 2 3 4 4 5 5 5 6 6 6 6 5 5 5 4 3 2 2 2 2 1 2 2 2 3 2 2 2 2 2 2 2 2
4 5 5 5 5 5 3 5 1 1 1 1 1 1 0 0 1 2 2 2 2 3 4 5 5 6 6 6 6 6 5 4 3 3 3 2 2 2 2 3 3 3 2 3 2 2 3 2 2
5 6 4 5 5 2 1 4 0 3 3 3 2 1 1 1 1 1 1 1 2 3 4 5 6 6 6 7 7 6 6 6 5 4 4 3 2 2 3 3 4 3 3 4 3 3 3 3 3
5 6 5 3 3 1 3 4 3 4 3 3 2 2 1 1 1 0 1 1 2 2 3 5 5 6 6 6 6 6 5 4 4 4 3 3 3 3 3 4 4 4 4 4 3 3 3 3 4
5 4 4 5 4 4 4 3 3 3 3 3 3 3 3 3 2 1 1 1 2 2 3 4 5 5 5 5 6 5 5 4 5 4 4 3 3 3 3 4 4 4 5 4 4 3 4 3 3
2 2 4 5 4 5 4 5 2 2 2 2 3 3 3 3 3 2 0 1 2 1 2 3 4 4 4 4 4 3 4 5 5 4 4 4 4 3 4 4 4 4 5 5 5 4 4 4 3
5 5 4 4 5 5 4 1 3 1 1 2 2 3 3 3 3 2 1 0 1 1 1 2 3 3 4 4 3 4 3 4 4 4 4 4 4 4 4 4 4 4 5 5 5 5 4 5 4
4 4 5 6 5 5 5 1 4 1 1 1 2 2 3 3 3 3 2 1 1 1 1 1 1 2 2 3 3 3 3 4 4 4 4 4 5 4 4 5 5 5 5 5 5 5 5 5 5
Wind_Direction
199 205 241 241 215 106 85 82 84 96 80 63 57 56 58 41 28 65 90 90 78 82 81 87 64 73 79 81 81 82 79 75 72 73 71 69 70 70 71 72 76 77 77 77 75 73 74 75 75
234 233 241 248 226 114 93 92 91 72 90 104 81 67 71 70 57 87 108 96 93 88 85 77 70 74 77 79 79 80 80 76 73 72 70 68 69 70 71 71 74 76 76 76 74 73 72 72 71
193 262 285 205 74 76 97 100 97 97 106 100 88 58 50 67 82 94 100 116 103 93 87 83 68 75 76 77 76 76 77 76 75 74 72 70 69 69 70 72 73 73 73 73 72 70 69 70 70
243 213 205 109 93 74 87 106 118 126 119 89 100 90 78 61 73 98 115 117 105 97 92 88 70 75 76 80 79 77 77 76 75 74 73 70 68 67 66 68 70 70 70 69 68 66 66 66 67
248 242 139 114 97 92 91 100 128 124 111 107 110 95 92 85 93 111 120 114 106 101 96 95 79 77 77 78 79 78 78 76 74 74 72 70 69 67 68 66 66 67 68 66 63 62 63 62 59
203 225 158 125 112 109 115 127 136 114 107 116 118 106 95 112 121 121 120 114 107 103 100 102 98 83 78 77 79 79 77 75 73 73 72 69 68 66 66 65 65 66 65 63 62 61 61 60 56
223 133 120 124 127 122 106 116 134 115 118 109 119 110 115 130 129 128 121 117 111 107 105 104 110 111 102 87 78 78 76 74 72 72 71 69 69 68 67 67 66 68 67 66 63 61 61 60 58
330 150 137 134 139 115 113 128 104 136 100 101 154 124 125 140 142 137 129 124 118 114 109 105 103 102 105 104 91 82 79 74 73 75 71 73 85 84 76 74 68 66 64 65 64 63 61 60 59
241 186 140 132 145 118 133 146 119 110 121 121 94 65 103 135 147 146 139 133 124 117 114 113 110 103 95 91 101 104 100 88 96 97 90 88 78 76 78 66 63 62 61 64 64 62 59 63 77
215 166 117 106 126 123 136 145 145 155 140 135 125 113 128 145 155 155 150 144 139 134 123 116 115 111 103 95 100 95 94 93 79 74 77 64 61 63 66 83 71 65 66 74 68 64 79 30 76
146 120 119 126 127 127 133 127 147 172 141 145 152 146 149 157 161 161 153 144 136 133 127 126 117 110 105 103 89 82 81 85 83 74 75 70 73 82 71 72 89 78 72 65 76 77 52 53 57
135 112 128 126 131 146 135 134 141 180 104 80 142 150 156 164 166 166 159 147 146 142 134 132 131 123 114 100 96 98 92 84 79 75 70 67 62 55 55 53 51 49 52 49 42 41 55 55 60
154 133 125 128 136 133 128 146 148 171 143 123 139 153 165 168 167 168 160 153 154 150 155 149 144 132 119 103 101 101 90 78 81 69 68 65 60 58 55 58 55 48 50 53 44 42 53 52 50
141 146 139 143 156 163 157 158 191 187 152 147 153 162 169 173 176 172 170 172 166 165 162 151 159 147 142 133 129 98 92 96 79 70 58 58 59 56 48 54 52 50 42 43 43 52 54 52 49
160 165 166 175 192 179 205 200 203 171 166 168 170 170 173 178 182 187 179 182 179 171 164 155 164 162 155 138 108 99 109 97 82 77 64 60 57 57 56 48 52 49 49 50 47 55 57 64 63
188 198 192 151 202 200 229 229 163 161 185 187 187 181 181 185 193 191 185 188 186 180 170 158 167 178 160 146 141 122 121 110 101 91 71 61 61 59 56 52 53 48 42 42 54 49 50 56 47
197 199 192 161 169 200 224 248 131 183 208 206 201 197 193 192 199 192 187 192 192 187 179 168 170 177 167 158 153 137 130 127 123 116 95 45 56 61 67 52 47 51 48 41 37 50 35 51 45
188 196 198 205 147 210 233 245 224 197 220 223 208 208 207 209 203 189 188 191 191 189 188 178 168 180 168 170 175 159 161 162 151 153 150 57 66 87 80 80 60 53 53 46 43 60 52 42 35
218 216 224 230 172 241 244 258 265 208 212 227 212 209 212 217 207 190 186 189 189 189 195 188 183 178 173 177 193 191 187 186 181 189 193 213 213 168 129 197 71 44 61 49 64 71 99 71 2
217 218 219 185 143 247 247 261 266 229 220 230 226 216 212 212 194 189 195 195 196 195 203 200 195 186 183 190 201 200 190 207 183 198 196 227 234 213 209 228 217 193 190 190 173 183 271 94 318
220 228 235 246 206 210 238 235 206 166 168 204 246 241 229 224 209 195 200 199 202 201 205 207 201 194 192 191 193 177 167 184 188 206 206 228 247 236 226 224 231 230 228 213 220 222 231 227 216
220 220 233 228 237 212 240 259 191 166 152 159 225 237 243 229 221 205 207 203 210 210 207 208 202 200 194 192 199 198 205 213 224 228 215 207 219 236 237 229 230 230 235 232 222 217 235 233 232
211 163 210 228 242 241 222 250 179 149 194 175 123 34 250 238 224 214 215 213 215 210 207 208 201 202 198 200 202 216 222 228 224 224 220 224 215 228 230 234 233 238 236 238 225 215 229 227 242
163 186 192 212 234 238 234 247 211 115 346 34 51 47 55 35 212 226 219 210 200 201 203 205 201 202 203 207 211 219 222 225 220 223 225 224 211 214 221 228 231 234 232 231 225 220 225 236 234
205 226 221 211 213 226 153 242 181 56 33 6 356 356 37 79 177 210 209 201 192 191 200 201 201 204 205 212 218 222 229 236 235 233 231 234 228 221 219 220 227 229 227 222 218 219 225 230 234
213 241 259 267 255 222 194 232 104 77 51 41 34 15 32 51 49 250 228 211 211 200 206 205 204 208 207 214 222 225 226 233 240 238 236 236 243 242 229 224 227 227 228 224 215 228 229 233 232
204 221 284 279 267 259 217 192 147 106 64 47 42 36 28 24 16 330 272 245 232 217 214 214 211 213 213 218 221 223 228 236 241 239 237 238 242 243 239 229 227 223 222 223 215 224 226 231 235
271 204 219 239 252 252 230 225 203 130 48 43 31 21 16 13 11 0 299 252 241 230 226 214 219 223 220 217 217 222 229 236 243 244 241 244 246 242 238 233 233 226 219 216 216 224 233 229 225
176 192 232 245 264 271 262 184 64 81 50 40 27 14 8 10 8 12 11 249 205 192 191 212 213 226 228 226 221 216 219 233 242 246 245 246 248 245 244 242 240 235 228 222 215 225 228 233 229
226 222 233 250 240 252 271 258 83 80 48 16 7 6 4 11 16 17 16 34 121 159 168 205 222 229 233 230 226 225 218 221 230 240 246 249 249 244 244 248 249 245 236 231 224 223 227 231 233